Location: Amberg
(48.0613°N, 10.6820°E)
Time: 07:44:11
(UTC+00:00)

TIMED - Pass Details

Date: 18 November 2025
Orbit: 582 x 584 km, 74.1° (Epoch: 06 December)

Event Time Altitude Azimuth Distance (km) Brightness Sun altitude
Rises 16:28:07 0° 201° (SSW) 2,797 8.6 -8.8°
Reaches altitude 10° 16:30:19 10° 202° (SSW) 1,902 7.7 -9.1°
Maximum altitude 16:34:33 88° 285° (WNW) 592 4.5 -9.8°
Drops below altitude 10° 16:38:51 10° 22° (NNE) 1,918 6.7 -10.5°
Enters shadow 16:40:18 - 23° (NNE) 2,502 7.3 -10.7°
